Terug naar catalogus

STARLINK-36434

ActiefCommunicatieVLEO
NORAD 67322·PAYLOAD·🇺🇸 United States

Gelanceerd Jan 4, 2026 vanaf Cape Canaveral Space Force Station

Loading…

Volgende Passages (komende 24 uur)

TLE

VersSource: CelesTrak SupGP

Epoch: Sep 15, 2026, 03:00 UTC

1 67322C 26002T   26258.12548611  .00040975  00000+0  14838-2 0  2589
2 67322  43.0008 335.7397 0001403 263.9871 222.1114 15.27565983    13

Volg STARLINK-36434 in realtime met AllMySat

Download on the App Store